Weather History for KLNL - February, 2013

Change the Weather History Date:

Saturday, February 16, 2013

  Actual Average (KEGV) Record (KEGV)
Temperature  
Mean Temperature -2 °F -  
Max Temperature 14 °F 22 °F 57 °F (2011)
Min Temperature -18 °F 3 °F -20 °F (2003)
Degree Days  
Heating Degree Days 67    
Moisture  
Dew Point -7 °F    
Average Humidity 77    
Maximum Humidity 85    
Minimum Humidity 48    
Precipitation  
Precipitation 0.00 in - - ()
Sea Level Pressure  
Sea Level Pressure 30.06 in    
Wind  
Wind Speed 2 mph (NNW)    
Max Wind Speed 9 mph    
Max Gust Speed 17 mph    
Visibility 7 miles    
Events Snow    
Averages and records for this station are not official NWS values.
T = Trace of Precipitation, MM = Missing Value Source: NWS Daily Summary

Daily Weather History Graph

Daily Weather History Graph

Search for Another Location

Airport or City:

Trip Planner

Search our weather history database for the weather conditions in past years. The results will help you decide how hot, cold, wet, or windy it might be!

Date:

Astronomy

Feb. 16, 2013 Rise Set
Actual Time 6:57 AM CST 5:24 PM CST
Civil Twilight 6:26 AM CST 5:55 PM CST
Nautical Twilight 5:52 AM CST 6:30 PM CST
Astronomical Twilight 5:17 AM CST 7:05 PM CST
Moon 9:46 AM CST (2/16) No Moon Set
Length of Visible Light 11h 28m
Length of Day
10h 27m
Waxing Crescent, 39% of the Moon is Illuminated
Feb 16
Waxing Crescent
Feb 17
First Quarter
Feb 25
Full
Mar 4
Last Quarter
Mar 11
New

Hourly Weather History & Observations

Time (CST) Temp. Windchill Dew Point Humidity Pressure Visibility Wind Dir Wind Speed Gust Speed Precip Events Conditions
12:15 AM 1.4 °F -6.2 °F -4.0 °F 78% 30.05 in 7.0 mi West 3.5 mph - N/A Snow Light Snow
12:35 AM 1.4 °F -6.2 °F -2.2 °F 85% 30.05 in 5.0 mi West 3.5 mph - N/A Snow Light Snow
12:55 AM 1.4 °F -6.2 °F -2.2 °F 85% 30.05 in 2.5 mi West 3.5 mph - N/A Snow Light Snow
1:15 AM 1.4 °F -6.2 °F -4.0 °F 78% 30.05 in 5.0 mi West 3.5 mph - N/A Snow Light Snow
1:35 AM -4.0 °F - -7.6 °F 85% 30.05 in 4.0 mi Calm Calm - N/A Snow Light Snow
1:55 AM -5.8 °F - -9.4 °F 84% 30.04 in 5.0 mi Calm Calm - N/A Snow Light Snow
2:15 AM -5.8 °F - -9.4 °F 84% 30.04 in 4.0 mi Calm Calm - N/A Snow Light Snow
2:35 AM -5.8 °F - -9.4 °F 84% 30.04 in 3.0 mi Calm Calm - N/A Snow Light Snow
2:55 AM -4.0 °F - -7.6 °F 85% 30.04 in 4.0 mi Calm Calm - N/A Snow Light Snow
3:15 AM -5.8 °F -14.5 °F -9.4 °F 84% 30.03 in 4.0 mi West 3.5 mph - N/A Snow Light Snow
3:35 AM -5.8 °F - -9.4 °F 84% 30.03 in 4.0 mi Calm Calm - N/A Snow Light Snow
3:55 AM -5.8 °F -14.5 °F -9.4 °F 84% 30.03 in 3.0 mi WNW 3.5 mph - N/A Snow Light Snow
4:15 AM -5.8 °F -14.5 °F -9.4 °F 84% 30.03 in 3.0 mi WNW 3.5 mph - N/A Snow Light Snow
4:35 AM -4.0 °F -12.4 °F -7.6 °F 85% 30.03 in 7.0 mi WNW 3.5 mph - N/A Snow Light Snow
4:55 AM -5.8 °F - -11.2 °F 77% 30.03 in 10.0 mi Calm Calm - N/A   Scattered Clouds
5:15 AM -9.4 °F - -13.0 °F 84% 30.03 in 7.0 mi Calm Calm - N/A Snow Light Snow
5:35 AM -7.6 °F - -13.0 °F 77% 30.03 in 5.0 mi Calm Calm - N/A Snow Light Snow
5:55 AM -9.4 °F - -14.8 °F 77% 30.03 in 7.0 mi Calm Calm - N/A Snow Light Snow
6:15 AM -13.0 °F - -18.4 °F 77% 30.04 in 10.0 mi Calm Calm - N/A Snow Light Snow
6:35 AM -11.2 °F - -14.8 °F 84% 30.04 in 7.0 mi Calm Calm - N/A   Scattered Clouds
6:55 AM -11.2 °F -20.6 °F -16.6 °F 77% 30.04 in 5.0 mi WNW 3.5 mph - N/A   Haze
7:15 AM -5.8 °F - -9.4 °F 84% 30.05 in 3.0 mi Calm Calm - N/A Snow Light Snow
7:35 AM -5.8 °F - -11.2 °F 77% 30.05 in 5.0 mi Calm Calm - N/A Snow Light Snow
7:55 AM -0.4 °F - -4.0 °F 85% 30.05 in 1.5 mi Calm Calm - N/A Snow Light Snow
8:15 AM 1.4 °F - -2.2 °F 85% 30.05 in 4.0 mi Calm Calm - N/A Snow Light Snow
8:35 AM 5.0 °F -2.1 °F 1.4 °F 85% 30.05 in 4.0 mi NW 3.5 mph - N/A Snow Light Snow
8:55 AM 6.8 °F - 3.2 °F 85% 30.05 in 5.0 mi Calm Calm - N/A Snow Light Snow
9:15 AM 8.6 °F 0.1 °F 3.2 °F 79% 30.05 in 7.0 mi NNW 4.6 mph - N/A   Scattered Clouds
9:35 AM 8.6 °F 0.1 °F 5.0 °F 85% 30.05 in 4.0 mi NNW 4.6 mph - N/A Snow Light Snow
12:15 PM 12.2 °F -0.2 °F -0.4 °F 57% 30.05 in 5.0 mi North 9.2 mph - N/A   Haze
12:35 PM 10.4 °F -0.4 °F 1.4 °F 67% 30.04 in 4.0 mi NNW 6.9 mph - N/A Snow Light Snow
12:55 PM 12.2 °F 2.9 °F -4.0 °F 48% 30.04 in 10.0 mi NNW 5.8 mph - N/A   Mostly Cloudy
1:15 PM 12.2 °F -0.2 °F 1.4 °F 62% 30.04 in 7.0 mi North 9.2 mph 17.3 mph N/A   Overcast
1:35 PM 12.2 °F 2.9 °F 1.4 °F 62% 30.04 in 5.0 mi North 5.8 mph - N/A   Haze
1:55 PM 14.0 °F 2.9 °F -0.4 °F 53% 30.03 in 10.0 mi North 8.1 mph - N/A   Overcast
2:15 PM 12.2 °F 0.7 °F 3.2 °F 67% 30.04 in 2.5 mi North 8.1 mph - N/A Snow Light Snow
2:35 PM 12.2 °F 4.3 °F 5.0 °F 73% 30.04 in 3.0 mi NNE 4.6 mph - N/A Snow Light Snow
2:55 PM 12.2 °F 2.9 °F -0.4 °F 57% 30.04 in 10.0 mi North 5.8 mph - N/A   Scattered Clouds
3:15 PM 12.2 °F 2.9 °F 3.2 °F 67% 30.05 in 5.0 mi North 5.8 mph - N/A   Haze
3:55 PM 12.2 °F 1.7 °F 1.4 °F 62% 30.05 in 10.0 mi North 6.9 mph - N/A   Overcast
4:15 PM 12.2 °F 6.1 °F 3.2 °F 67% 30.06 in 10.0 mi North 3.5 mph - N/A   Overcast
4:35 PM 10.4 °F - 1.4 °F 67% 30.06 in 10.0 mi Calm Calm - N/A   Overcast
4:55 PM 10.4 °F -0.4 °F 3.2 °F 73% 30.07 in 10.0 mi North 6.9 mph - N/A   Overcast
5:15 PM 10.4 °F 0.8 °F 3.2 °F 73% 30.07 in 7.0 mi North 5.8 mph - N/A   Overcast
5:35 PM 10.4 °F - 3.2 °F 73% 30.07 in 10.0 mi Calm Calm - N/A   Overcast
5:55 PM 6.8 °F - 1.4 °F 79% 30.08 in 10.0 mi Calm Calm - N/A   Scattered Clouds
6:15 PM 3.2 °F - -0.4 °F 85% 30.08 in 10.0 mi Calm Calm - N/A   Clear
6:35 PM 1.4 °F - -2.2 °F 85% 30.08 in 10.0 mi Calm Calm - N/A   Clear
6:55 PM -0.4 °F - -4.0 °F 85% 30.09 in 10.0 mi Calm Calm - N/A   Scattered Clouds
7:15 PM -2.2 °F - -5.8 °F 85% 30.09 in 10.0 mi Calm Calm - N/A   Scattered Clouds
7:35 PM -5.8 °F - -9.4 °F 84% 30.09 in 10.0 mi Calm Calm - N/A   Scattered Clouds
7:55 PM -5.8 °F - -9.4 °F 84% 30.09 in 10.0 mi Calm Calm - N/A   Scattered Clouds
8:15 PM -9.4 °F - -14.8 °F 77% 30.08 in 10.0 mi Calm Calm - N/A   Clear
8:35 PM -9.4 °F - -14.8 °F 77% 30.08 in 10.0 mi Calm Calm - N/A   Clear
8:55 PM -11.2 °F - -16.6 °F 77% 30.09 in 10.0 mi Calm Calm - N/A   Clear
9:15 PM -13.0 °F - -16.6 °F 84% 30.08 in 10.0 mi Calm Calm - N/A   Clear
9:35 PM -13.0 °F - -18.4 °F 77% 30.09 in 10.0 mi Calm Calm - N/A   Clear
9:55 PM -14.8 °F - -18.4 °F 84% 30.08 in 10.0 mi Calm Calm - N/A   Clear
10:15 PM -14.8 °F - -22.0 °F 70% 30.08 in 10.0 mi Calm Calm - N/A   Clear
10:35 PM -16.6 °F - -22.0 °F 76% 30.08 in 10.0 mi Calm Calm - N/A   Clear
10:55 PM -16.6 °F - -23.8 °F 70% 30.08 in 10.0 mi Calm Calm - N/A   Clear
11:15 PM -18.4 °F - -23.8 °F 76% 30.08 in 10.0 mi Calm Calm - N/A   Clear
11:35 PM -18.4 °F - -23.8 °F 76% 30.07 in 10.0 mi Calm Calm - N/A   Clear
11:55 PM -18.4 °F - -25.6 °F 70% 30.07 in 10.0 mi Calm Calm - N/A   Clear